Satellite: MET-3/5 Catalog number: 21655 Epoch time: 12067.88355211 Element set: 0354 Inclination: 082.5540 deg RA of node: 223.7400 deg Eccentricity: 0.0012795 Arg of perigee: 211.5409 deg Mean anomaly: 148.4941 deg Mean motion: 13.17033826 rev/day Decay rate: 5.1e-07 rev/day^2 Epoch rev: 98856 Checksum: 294
Satellite: MET-2/21 Catalog number: 22782 Epoch time: 12067.70303292 Element set: 0358 Inclination: 082.5468 deg RA of node: 113.0403 deg Eccentricity: 0.0024200 Arg of perigee: 077.8504 deg Mean anomaly: 282.5355 deg Mean motion: 13.83676283 rev/day Decay rate: 5.0e-08 rev/day^2 Epoch rev: 93513 Checksum: 283
Satellite: OKEAN-4 Catalog number: 23317 Epoch time: 12068.88301268 Element set: 825 Inclination: 082.5410 deg RA of node: 124.9688 deg Eccentricity: 0.0020585 Arg of perigee: 327.3845 deg Mean anomaly: 032.6098 deg Mean motion: 14.83617459 rev/day Decay rate: 1.045e-05 rev/day^2 Epoch rev: 93993 Checksum: 326
Satellite: NOAA-14 Catalog number: 23455 Epoch time: 12067.92203529 Element set: 0827 Inclination: 098.8325 deg RA of node: 152.6841 deg Eccentricity: 0.0008568 Arg of perigee: 246.8045 deg Mean anomaly: 113.2223 deg Mean motion: 14.13880495 rev/day Decay rate: 5.8e-07 rev/day^2 Epoch rev: 88648 Checksum: 322
Satellite: NOAA-15 Catalog number: 25338 Epoch time: 12067.60000508 Element set: 0177 Inclination: 098.6826 deg RA of node: 055.5059 deg Eccentricity: 0.0011363 Arg of perigee: 047.3467 deg Mean anomaly: 312.8659 deg Mean motion: 14.25036603 rev/day Decay rate: 5.8e-07 rev/day^2 Epoch rev: 71838 Checksum: 305
Satellite: RESURS Catalog number: 25394 Epoch time: 12067.95934195 Element set: 0041 Inclination: 098.3135 deg RA of node: 061.5586 deg Eccentricity: 0.0001420 Arg of perigee: 137.7572 deg Mean anomaly: 222.3722 deg Mean motion: 14.24276004 rev/day Decay rate: 3.2e-07 rev/day^2 Epoch rev: 70999 Checksum: 287
Satellite: FENGYUN1 Catalog number: 25730 Epoch time: 12067.91247069 Element set: 553 Inclination: 098.8406 deg RA of node: 028.7027 deg Eccentricity: 0.0019364 Arg of perigee: 297.8250 deg Mean anomaly: 062.0953 deg Mean motion: 14.09291711 rev/day Decay rate: 1.353e-05 rev/day^2 Epoch rev: 66034 Checksum: 301
Satellite: OKEAN-0 Catalog number: 25860 Epoch time: 12067.92156399 Element set: 0579 Inclination: 097.9234 deg RA of node: 032.7138 deg Eccentricity: 0.0000705 Arg of perigee: 095.4296 deg Mean anomaly: 264.6993 deg Mean motion: 14.74105007 rev/day Decay rate: 5.28e-06 rev/day^2 Epoch rev: 67965 Checksum: 333
Satellite: NOAA-16 Catalog number: 26536 Epoch time: 12067.61716395 Element set: 0661 Inclination: 099.1085 deg RA of node: 108.1124 deg Eccentricity: 0.0010609 Arg of perigee: 013.9333 deg Mean anomaly: 346.2132 deg Mean motion: 14.12709113 rev/day Decay rate: -1.41e-06 rev/day^2 Epoch rev: 59069 Checksum: 279
Satellite: NOAA-17 Catalog number: 27453 Epoch time: 12067.87123964 Element set: 0626 Inclination: 098.3486 deg RA of node: 099.9787 deg Eccentricity: 0.0012724 Arg of perigee: 094.2260 deg Mean anomaly: 266.0361 deg Mean motion: 14.24399848 rev/day Decay rate: 8.0e-08 rev/day^2 Epoch rev: 50433 Checksum: 336
Satellite: NOAA-18 Catalog number: 28654 Epoch time: 12067.92157822 Element set: 0103 Inclination: 099.0345 deg RA of node: 025.2302 deg Eccentricity: 0.0015162 Arg of perigee: 080.2969 deg Mean anomaly: 279.9895 deg Mean motion: 14.11615553 rev/day Decay rate: 3.77e-06 rev/day^2 Epoch rev: 35027 Checksum: 308
Satellite: NOAA-19 Catalog number: 33591 Epoch time: 12067.69401595 Element set: 0291 Inclination: 098.8553 deg RA of node: 008.7849 deg Eccentricity: 0.0013541 Arg of perigee: 311.3380 deg Mean anomaly: 048.6619 deg Mean motion: 14.11301114 rev/day Decay rate: 5.0e-08 rev/day^2 Epoch rev: 15869 Checksum: 302
/EX SB KEPS @ AMSAT $ORB12068.M Orbital Elements 12068.MISC
HR AMSAT ORBITAL ELEMENTS FOR MANNED AND MISCELLANEOUS SATELLITES FROM WA5QGD FORT WORTH,TX March 8, 2012 Send SUBSCRIBE KEPS/UNSUBSCRIBE KEPS to [email protected] only BID: ORB12068.M TO ALL RADIO AMATEURS BT
Satellite: HUBBLE Catalog number: 20580 Epoch time: 12068.28511873 Element set: 958 Inclination: 028.4699 deg RA of node: 083.7260 deg Eccentricity: 0.0003334 Arg of perigee: 068.9947 deg Mean anomaly: 291.1075 deg Mean motion: 15.02245874 rev/day Decay rate: 1.749e-05 rev/day^2 Epoch rev: 99954 Checksum: 337
Satellite: ISS Catalog number: 25544 Epoch time: 12068.80260505 Element set: 153 Inclination: 051.6406 deg RA of node: 265.4244 deg Eccentricity: 0.0017716 Arg of perigee: 134.9286 deg Mean anomaly: 342.9388 deg Mean motion: 15.58908139 rev/day Decay rate: 1.7971e-04 rev/day^2 Epoch rev: 76236 Checksum: 318
Satellite: CO-58 Catalog number: 28895 Epoch time: 12068.58335821 Element set: 117 Inclination: 097.9315 deg RA of node: 299.2012 deg Eccentricity: 0.0018768 Arg of perigee: 106.2309 deg Mean anomaly: 254.0982 deg Mean motion: 14.60508883 rev/day Decay rate: 7.65e-06 rev/day^2 Epoch rev: 33897 Checksum: 347
Satellite: FALCON Catalog number: 30776 Epoch time: 12067.70517199 Element set: 0318 Inclination: 035.4321 deg RA of node: 176.3304 deg Eccentricity: 0.0002063 Arg of perigee: 230.9842 deg Mean anomaly: 129.0692 deg Mean motion: 15.06766555 rev/day Decay rate: 4.034e-05 rev/day^2 Epoch rev: 27493 Checksum: 290
Satellite: MAST Catalog number: 31126 Epoch time: 12067.58859055 Element set: 402 Inclination: 097.8792 deg RA of node: 084.6209 deg Eccentricity: 0.0095166 Arg of perigee: 067.4177 deg Mean anomaly: 293.7048 deg Mean motion: 14.54052479 rev/day Decay rate: 6.30e-06 rev/day^2 Epoch rev: 25950 Checksum: 323
Satellite: CAPE1 Catalog number: 31130 Epoch time: 12068.50244326 Element set: 414 Inclination: 097.8857 deg RA of node: 081.9298 deg Eccentricity: 0.0102959 Arg of perigee: 076.9724 deg Mean anomaly: 284.2933 deg Mean motion: 14.52794403 rev/day Decay rate: 5.27e-06 rev/day^2 Epoch rev: 25915 Checksum: 318
Satellite: COMPASS Catalog number: 32787 Epoch time: 12068.65757036 Element set: 243 Inclination: 097.8120 deg RA of node: 132.1927 deg Eccentricity: 0.0015913 Arg of perigee: 033.5637 deg Mean anomaly: 326.6635 deg Mean motion: 14.83586585 rev/day Decay rate: 1.978e-05 rev/day^2 Epoch rev: 20890 Checksum: 326
Satellite: AAUSAT2 Catalog number: 32788 Epoch time: 12067.83870776 Element set: 0235 Inclination: 097.8142 deg RA of node: 131.7188 deg Eccentricity: 0.0015385 Arg of perigee: 038.5879 deg Mean anomaly: 321.6416 deg Mean motion: 14.83868159 rev/day Decay rate: 1.808e-05 rev/day^2 Epoch rev: 20880 Checksum: 343
Satellite: DO-64 Catalog number: 32789 Epoch time: 12068.65205666 Element set: 249 Inclination: 097.8246 deg RA of node: 134.1818 deg Eccentricity: 0.0015065 Arg of perigee: 032.0990 deg Mean anomaly: 328.1201 deg Mean motion: 14.85075517 rev/day Decay rate: 3.570e-05 rev/day^2 Epoch rev: 20895 Checksum: 317
Satellite: CO-66 Catalog number: 32791 Epoch time: 12067.73298487 Element set: 0237 Inclination: 097.8126 deg RA of node: 131.1043 deg Eccentricity: 0.0016482 Arg of perigee: 035.9625 deg Mean anomaly: 324.2705 deg Mean motion: 14.83074304 rev/day Decay rate: 1.645e-05 rev/day^2 Epoch rev: 20870 Checksum: 306
Satellite: RS-30 Catalog number: 32953 Epoch time: 12068.76005739 Element set: 590 Inclination: 082.5076 deg RA of node: 357.5876 deg Eccentricity: 0.0018473 Arg of perigee: 163.4216 deg Mean anomaly: 196.7476 deg Mean motion: 12.43021436 rev/day Decay rate: 1.0e-07 rev/day^2 Epoch rev: 17208 Checksum: 304
Satellite: TACSAT-3 Catalog number: 35001 Epoch time: 12068.87555765 Element set: 896 Inclination: 040.4479 deg RA of node: 334.5096 deg Eccentricity: 0.0011804 Arg of perigee: 262.0547 deg Mean anomaly: 097.8951 deg Mean motion: 15.78945931 rev/day Decay rate: 1.69358e-03 rev/day^2 Epoch rev: 15856 Checksum: 353
Satellite: PHARMSAT Catalog number: 35002 Epoch time: 12068.90092960 Element set: 819 Inclination: 040.4663 deg RA of node: 340.7508 deg Eccentricity: 0.0001453 Arg of perigee: 020.2273 deg Mean anomaly: 339.8609 deg Mean motion: 15.67394012 rev/day Decay rate: 7.3232e-04 rev/day^2 Epoch rev: 15850 Checksum: 278
Satellite: METEOR-M Catalog number: 35865 Epoch time: 12068.73100192 Element set: 212 Inclination: 098.6672 deg RA of node: 124.8850 deg Eccentricity: 0.0002248 Arg of perigee: 005.1434 deg Mean anomaly: 354.9740 deg Mean motion: 14.21855286 rev/day Decay rate: -4.31e-06 rev/day^2 Epoch rev: 12832 Checksum: 280
Satellite: RS-38 Catalog number: 35869 Epoch time: 12068.76665834 Element set: 220 Inclination: 098.6633 deg RA of node: 124.9313 deg Eccentricity: 0.0004297 Arg of perigee: 354.0562 deg Mean anomaly: 006.0560 deg Mean motion: 14.22057675 rev/day Decay rate: 1.49e-06 rev/day^2 Epoch rev: 12834 Checksum: 311
Satellite: JUGNU Catalog number: 37839 Epoch time: 12068.75401376 Element set: 102 Inclination: 019.9556 deg RA of node: 246.6808 deg Eccentricity: 0.0018700 Arg of perigee: 197.7906 deg Mean anomaly: 162.1847 deg Mean motion: 14.12029162 rev/day Decay rate: 6.20e-06 rev/day^2 Epoch rev: 2103 Checksum: 287
Satellite: SRMSAT Catalog number: 37841 Epoch time: 12068.74279691 Element set: 104 Inclination: 019.9684 deg RA of node: 249.6253 deg Eccentricity: 0.0012256 Arg of perigee: 168.5354 deg Mean anomaly: 191.5314 deg Mean motion: 14.10120593 rev/day Decay rate: 2.64e-06 rev/day^2 Epoch rev: 2099 Checksum: 297
Satellite: RAX-2 Catalog number: 37853 Epoch time: 12068.89871544 Element set: 116 Inclination: 101.7133 deg RA of node: 063.4828 deg Eccentricity: 0.0250172 Arg of perigee: 276.5609 deg Mean anomaly: 080.7172 deg Mean motion: 14.79102565 rev/day Decay rate: 5.545e-05 rev/day^2 Epoch rev: 1956 Checksum: 312
